User: anonymous   Login
Location: Unspecified
(0.0000°N, 0.0000°E)
Time: 19:34:43
(UTC+00:00)
Language:

USA-159 - Orbit

View from above orbital plane
View from above orbital plane
View from above satellite
View from above satellite

Ground track
Ground track

The orbit data is extracted from the following two-line orbital elements,

1 26880U 01033A   21136.36500955 -.00000289  00000-0  00000-0 0  9997
2 26880  11.0714  28.2317 0000840 248.7012  39.7302  1.00271093 14337
Epoch (UTC): 16 May 2021 08:45:36
Eccentricity: 0.0000840
inclination: 11.0714°
perigee height: 35783 km
apogee height: 35790 km
right ascension of ascending node: 28.2317°
argument of perigee: 248.7012°
revolutions per day: 1.00271093
mean anomaly at epoch: 39.7302°
orbit number at epoch: 1433

The dashed part of the orbit path shows where the satellite is in the earth's shadow,  

DLR